User: anonymous   Login
Location: Whispering Pines Observatory
(39.4020°N, 104.7430°W)
Time: 23:36:39
(UTC-07:00)
Language:

MOS 1 Rocket - Orbit

View from above orbital plane
View from above orbital plane
View from above satellite
View from above satellite

Ground track
Ground track

The orbit data is extracted from the following two-line orbital elements,

1 17528U 87018B   17324.57892505 +.00000029 +00000-0 +15753-4 0  9991
2 17528 097.4711 264.0414 0152353 167.1884 302.8019 14.50818364601931
Epoch (UTC): 20 November 2017 13:53:39
Eccentricity: 0.0152353
inclination: 97.4711°
perigee height: 615 km
apogee height: 831 km
right ascension of ascending node: 264.0414°
argument of perigee: 167.1884°
revolutions per day: 14.50818364
mean anomaly at epoch: 302.8019°
orbit number at epoch: 60193

The dashed part of the orbit path shows where the satellite is in the earth's shadow,  

DLR